This is the latest recevied weather packets stored in our database for station/object W0WC. If no packets are shown the sender has not sent any weather packets the latest 10 day(s).
| Time | Temp. | Humidity | Pressure | Rain* | Wind** | Luminosity | Snow |
|---|---|---|---|---|---|---|---|
| 1777055917 | 20° C | 73% | 1009.6 hPa | 0 mm | - | 231 W/m² | - |
| 1777055614 | 20° C | 76% | 1009.8 hPa | 0 mm | - | 211 W/m² | - |
| 1777055309 | 20° C | 76% | 1009.6 hPa | 0 mm | - | 183 W/m² | - |
| 1777055008 | 20° C | 75% | 1009.7 hPa | 0 mm | - | 167 W/m² | - |
| 1777054705 | 20.56° C | 74% | 1009.6 hPa | 0 mm | - | 165 W/m² | - |
| 1777054401 | 20.56° C | 73% | 1009.6 hPa | 0 mm | - | 170 W/m² | - |
| 1777054100 | 20.56° C | 71% | 1009.5 hPa | 0 mm | - | 232 W/m² | - |
| 1777053796 | 20.56° C | 70% | 1009.4 hPa | 0 mm | - | 320 W/m² | - |
| 1777053495 | 20.56° C | 73% | 1009.4 hPa | 0 mm | - | 363 W/m² | - |
| 1777053191 | 20° C | 75% | 1009.6 hPa | 0 mm | - | 633 W/m² | - |
| 1777052888 | 20° C | 75% | 1009.4 hPa | 0 mm | - | 290 W/m² | - |
| 1777052583 | 20° C | 75% | 1009.4 hPa | 0 mm | - | 281 W/m² | - |
| 1777052279 | 20° C | 76% | 1009.5 hPa | 0 mm | - | 291 W/m² | - |
| 1777051974 | 20° C | 75% | 1009.4 hPa | 0 mm | - | 308 W/m² | - |
| 1777051672 | 19.44° C | 77% | 1009.3 hPa | 0 mm | - | 449 W/m² | - |
| 1777051368 | 19.44° C | 79% | 1009.3 hPa | 0 mm | - | 390 W/m² | - |
| 1777051063 | 19.44° C | 80% | 1009.3 hPa | 0 mm | - | 303 W/m² | - |
| 1777050760 | 19.44° C | 81% | 1009.3 hPa | 0 mm | - | 332 W/m² | - |
| 1777050455 | 18.89° C | 81% | 1009.3 hPa | 0 mm | - | 342 W/m² | - |
| 1777050149 | 18.89° C | 80% | 1009.4 hPa | 0 mm | - | 255 W/m² | - |
| 1777049844 | 18.89° C | 81% | 1009.6 hPa | 0 mm | - | 228 W/m² | - |
| 1777049540 | 18.89° C | 80% | 1009.5 hPa | 0 mm | - | 251 W/m² | - |
| 1777049233 | 18.89° C | 82% | 1009.4 hPa | 0 mm | - | 300 W/m² | - |
| 1777048929 | 18.89° C | 81% | 1009.5 hPa | 0 mm | - | 374 W/m² | - |
| 1777048623 | 18.33° C | 83% | 1009.5 hPa | 0 mm | - | 391 W/m² | - |
* Rain latest hour (hover to see other rain measurements)
** Current wind speed in m/s (hover to see current wind gust speed)